Wheaton NDB, MN

5:45 AM CDT on July 26, 2017 (GMT -0500)
Wheaton Municipal

Weather History for KETH - October, 2012

Change the Weather History Date:

Friday, October 26, 2012

  Actual Average Record
Temperature  
Mean Temperature 36 °F -  
Max Temperature 39 °F 59 °F 85 °F (1955)
Min Temperature 32 °F 33 °F 15 °F (1976)
Degree Days  
Heating Degree Days 30    
Moisture  
Dew Point 23 °F    
Average Humidity 61    
Maximum Humidity 75    
Minimum Humidity 48    
Precipitation  
Precipitation 0.00 in - - ()
Sea Level Pressure  
Sea Level Pressure 30.33 in    
Wind  
Wind Speed 14 mph (West)    
Max Wind Speed 21 mph    
Max Gust Speed 33 mph    
Visibility 10 miles    
Events      
Averages and records for this station are not official NWS values.
T = Trace of Precipitation, MM = Missing Value Source: NWS Daily Summary

Daily Weather History Graph

Daily Weather History Graph

Search for Another Location

Airport or City:

Trip Planner

Search our weather history database for the weather conditions in past years. The results will help you decide how hot, cold, wet, or windy it might be!

Date:

Astronomy

Oct. 26, 2012 Rise Set
Actual Time 7:58 AM CDT 6:20 PM CDT
Civil Twilight 7:27 AM CDT 6:51 PM CDT
Nautical Twilight 6:52 AM CDT 7:26 PM CDT
Astronomical Twilight 6:18 AM CDT 8:00 PM CDT
Moon 4:43 PM CDT 4:48 AM CDT
Length of Visible Light 11h 23m
Length of Day
10h 22m
Waxing Gibbous, 91% of the Moon is Illuminated
Oct 26
Waxing Gibbous
Oct 29
Full
Nov 6
Last Quarter
Nov 13
New
Nov 20
First Quarter

Hourly Weather History & Observations

Time (CDT) Temp. Windchill Dew Point Humidity Pressure Visibility Wind Dir Wind Speed Gust Speed Precip Events Conditions
12:35 AM 35.6 °F 25.5 °F 24.8 °F 65% 30.22 in 10.0 mi West 17.3 mph - N/A   Overcast
12:54 AM 35.6 °F 25.5 °F 24.8 °F 65% 30.23 in 10.0 mi WNW 17.3 mph 23.0 mph N/A   Overcast
1:15 AM 35.6 °F 27.5 °F 24.8 °F 65% 30.23 in 10.0 mi West 11.5 mph - N/A   Overcast
1:35 AM 35.6 °F 27.1 °F 24.8 °F 65% 30.24 in 10.0 mi West 12.7 mph - N/A   Overcast
1:55 AM 35.6 °F 27.1 °F 24.8 °F 65% 30.24 in 10.0 mi West 12.7 mph 17.3 mph N/A   Overcast
2:14 AM 35.6 °F 26.6 °F 24.8 °F 65% 30.25 in 10.0 mi West 13.8 mph - N/A   Overcast
2:34 AM 35.6 °F 25.2 °F 24.8 °F 65% 30.25 in 10.0 mi West 18.4 mph 23.0 mph N/A   Overcast
2:54 AM 35.6 °F 25.2 °F 24.8 °F 65% 30.26 in 10.0 mi West 18.4 mph 25.3 mph N/A   Overcast
3:35 AM 35.6 °F 27.1 °F 24.8 °F 65% 30.27 in 10.0 mi West 12.7 mph - N/A   Overcast
3:55 AM 35.6 °F 27.1 °F 24.8 °F 65% 30.27 in 10.0 mi West 12.7 mph - N/A   Overcast
4:14 AM 35.6 °F 25.9 °F 24.8 °F 65% 30.27 in 10.0 mi WNW 16.1 mph - N/A   Overcast
4:35 AM 35.6 °F 25.5 °F 24.8 °F 65% 30.28 in 10.0 mi WNW 17.3 mph - N/A   Overcast
4:54 AM 35.6 °F 25.5 °F 24.8 °F 65% 30.28 in 10.0 mi WNW 17.3 mph 23.0 mph N/A   Overcast
5:34 AM 35.6 °F 26.6 °F 23.0 °F 60% 30.29 in 10.0 mi West 13.8 mph 23.0 mph N/A   Overcast
5:55 AM 35.6 °F 24.5 °F 21.2 °F 56% 30.30 in 10.0 mi WNW 20.7 mph 33.4 mph N/A   Overcast
6:14 AM 35.6 °F 25.2 °F 21.2 °F 56% 30.30 in 10.0 mi WNW 18.4 mph 26.5 mph N/A   Overcast
6:34 AM 35.6 °F 26.2 °F 23.0 °F 60% 30.31 in 10.0 mi West 15.0 mph 20.7 mph N/A   Overcast
7:15 AM 35.6 °F 25.9 °F 23.0 °F 60% 30.33 in 10.0 mi WNW 16.1 mph 21.9 mph N/A   Overcast
7:34 AM 35.6 °F 26.6 °F 23.0 °F 60% 30.34 in 10.0 mi West 13.8 mph - N/A   Overcast
7:54 AM 35.6 °F 26.2 °F 23.0 °F 60% 30.34 in 10.0 mi West 15.0 mph - N/A   Overcast
8:14 AM 35.6 °F 27.5 °F 23.0 °F 60% 30.34 in 10.0 mi West 11.5 mph 20.7 mph N/A   Overcast
8:34 AM 35.6 °F 26.2 °F 23.0 °F 60% 30.34 in 10.0 mi West 15.0 mph 24.2 mph N/A   Overcast
8:54 AM 35.6 °F 26.2 °F 23.0 °F 60% 30.35 in 10.0 mi West 15.0 mph 21.9 mph N/A   Overcast
9:14 AM 35.6 °F 26.6 °F 23.0 °F 60% 30.35 in 10.0 mi West 13.8 mph 18.4 mph N/A   Overcast
9:34 AM 35.6 °F 26.6 °F 24.8 °F 65% 30.35 in 10.0 mi West 13.8 mph - N/A   Scattered Clouds
9:54 AM 37.4 °F 28.5 °F 24.8 °F 60% 30.36 in 10.0 mi West 15.0 mph 20.7 mph N/A   Scattered Clouds
10:14 AM 35.6 °F 26.6 °F 24.8 °F 65% 30.36 in 10.0 mi West 13.8 mph 19.6 mph N/A   Mostly Cloudy
10:34 AM 37.4 °F 27.8 °F 24.8 °F 60% 30.36 in 10.0 mi WNW 17.3 mph 21.9 mph N/A   Mostly Cloudy
10:54 AM 37.4 °F 29.8 °F 24.8 °F 60% 30.36 in 10.0 mi WNW 11.5 mph 19.6 mph N/A   Overcast
11:14 AM 37.4 °F 27.8 °F 21.2 °F 52% 30.37 in 10.0 mi WNW 17.3 mph 24.2 mph N/A   Overcast
11:34 AM 37.4 °F 28.2 °F 24.8 °F 60% 30.37 in 10.0 mi WNW 16.1 mph 21.9 mph N/A   Overcast
11:55 AM 35.6 °F 26.2 °F 23.0 °F 60% 30.37 in 10.0 mi West 15.0 mph 21.9 mph N/A   Overcast
12:15 PM 37.4 °F 28.5 °F 23.0 °F 56% 30.37 in 10.0 mi West 15.0 mph 21.9 mph N/A   Scattered Clouds
12:35 PM 39.2 °F 30.2 °F 23.0 °F 52% 30.37 in 10.0 mi West 17.3 mph 21.9 mph N/A   Scattered Clouds
12:54 PM 37.4 °F 27.8 °F 23.0 °F 56% 30.36 in 10.0 mi West 17.3 mph 23.0 mph N/A   Mostly Cloudy
1:15 PM 37.4 °F 28.9 °F 21.2 °F 52% 30.36 in 10.0 mi West 13.8 mph 24.2 mph N/A   Overcast
1:34 PM 35.6 °F 25.9 °F 23.0 °F 60% 30.36 in 10.0 mi West 16.1 mph 24.2 mph N/A   Overcast
1:55 PM 37.4 °F 28.9 °F 24.8 °F 60% 30.35 in 10.0 mi West 13.8 mph 20.7 mph N/A   Overcast
2:15 PM 37.4 °F 27.8 °F 24.8 °F 60% 30.35 in 10.0 mi West 17.3 mph 20.7 mph N/A   Overcast
2:34 PM 35.6 °F 26.6 °F 23.0 °F 60% 30.35 in 10.0 mi West 13.8 mph 20.7 mph N/A   Overcast
2:54 PM 37.4 °F 29.8 °F 21.2 °F 52% 30.34 in 10.0 mi West 11.5 mph - N/A   Overcast
3:14 PM 39.2 °F 30.2 °F 21.2 °F 49% 30.34 in 10.0 mi WSW 17.3 mph - N/A   Mostly Cloudy
3:34 PM 37.4 °F 28.2 °F 19.4 °F 48% 30.34 in 10.0 mi West 16.1 mph 21.9 mph N/A   Mostly Cloudy
3:54 PM 37.4 °F 29.8 °F 21.2 °F 52% 30.34 in 10.0 mi West 11.5 mph - N/A   Overcast
4:14 PM 37.4 °F 29.3 °F 21.2 °F 52% 30.34 in 10.0 mi West 12.7 mph 16.1 mph N/A   Overcast
4:35 PM 37.4 °F 30.3 °F 19.4 °F 48% 30.35 in 10.0 mi West 10.4 mph - N/A   Overcast
4:54 PM 37.4 °F 30.8 °F 19.4 °F 48% 30.35 in 10.0 mi West 9.2 mph - N/A   Overcast
5:14 PM 37.4 °F 30.8 °F 19.4 °F 48% 30.35 in 10.0 mi West 9.2 mph - N/A   Overcast
5:34 PM 37.4 °F 31.4 °F 19.4 °F 48% 30.35 in 10.0 mi West 8.1 mph - N/A   Overcast
5:54 PM 35.6 °F 30.7 °F 21.2 °F 56% 30.35 in 10.0 mi West 5.8 mph - N/A   Overcast
6:14 PM 35.6 °F 31.7 °F 21.2 °F 56% 30.35 in 10.0 mi West 4.6 mph - N/A   Overcast
6:34 PM 35.6 °F 32.8 °F 21.2 °F 56% 30.35 in 10.0 mi West 3.5 mph - N/A   Overcast
6:54 PM 35.6 °F 32.8 °F 21.2 °F 56% 30.35 in 10.0 mi WSW 3.5 mph - N/A   Overcast
7:14 PM 33.8 °F 30.8 °F 23.0 °F 65% 30.35 in 10.0 mi WSW 3.5 mph - N/A   Overcast
7:34 PM 33.8 °F 30.8 °F 24.8 °F 70% 30.35 in 10.0 mi SW 3.5 mph - N/A   Overcast
8:15 PM 33.8 °F 30.8 °F 24.8 °F 70% 30.35 in 10.0 mi WSW 3.5 mph - N/A   Overcast
8:34 PM 33.8 °F 30.8 °F 24.8 °F 70% 30.34 in 10.0 mi WSW 3.5 mph - N/A   Overcast
8:54 PM 33.8 °F - 24.8 °F 70% 30.34 in 10.0 mi Calm Calm - N/A   Overcast
9:14 PM 33.8 °F - 24.8 °F 70% 30.34 in 10.0 mi Calm Calm - N/A   Overcast
9:35 PM 33.8 °F 29.6 °F 24.8 °F 70% 30.34 in 10.0 mi SW 4.6 mph - N/A   Overcast
9:54 PM 33.8 °F 30.8 °F 24.8 °F 70% 30.34 in 10.0 mi SW 3.5 mph - N/A   Overcast
10:35 PM 33.8 °F 30.8 °F 24.8 °F 70% 30.34 in 10.0 mi SSW 3.5 mph - N/A   Overcast
11:14 PM 33.8 °F 29.6 °F 24.8 °F 70% 30.33 in 10.0 mi SSW 4.6 mph - N/A   Overcast
11:34 PM 32.0 °F 28.7 °F 24.8 °F 75% 30.32 in 10.0 mi SSW 3.5 mph - N/A   Overcast
11:55 PM 32.0 °F 28.7 °F 24.8 °F 75% 30.32 in 10.0 mi SW 3.5 mph - N/A   Overcast